Probability
0 0 0 0 0 0 0 0 0 0 0 0 0 0 0 0 0 0 0 0 0 0 0 0 0 0 0 0 0 0 0 0 0 0 0 1 2 2
0 0 0 0 0 0 0 0 0 0 0 0 0 0 0 0 0 0 0 0 0 0 0 0 0 0 0 0 0 0 0 0 0 0 0 0 1 1
0 0 0 0 0 0 0 0 0 0 0 0 0 0 0 0 0 0 0 0 0 0 0 0 0 0 0 0 0 0 0 0 0 0 0 0 0 0
0 0 0 0 0 0 0 0 0 0 0 0 0 0 0 0 0 0 0 0 0 0 0 0 0 0 0 0 0 0 0 0 0 0 0 0 0 0
0 0 0 0 0 0 0 0 0 0 0 0 0 0 0 0 0 0 0 0 0 0 0 0 0 0 0 0 0 0 0 0 0 0 0 0 0 0
0 0 0 0 0 0 0 0 0 0 0 0 0 0 0 0 0 0 0 0 0 0 0 0 0 0 0 0 0 0 0 0 0 0 0 0 0 0
0 0 0 0 0 0 0 0 0 0 0 0 0 0 0 0 0 0 0 0 0 0 0 0 0 0 0 0 0 0 0 0 0 0 0 0 0 0
0 0 0 0 0 0 0 0 0 0 0 0 0 0 0 0 0 0 0 0 0 0 0 0 0 0 0 0 0 0 0 0 0 0 0 0 0 0
0 0 0 0 0 0 0 0 0 0 0 0 0 0 0 0 0 0 0 0 0 0 0 0 0 0 0 0 0 0 0 0 0 0 0 0 0 0
0 0 0 0 0 0 0 0 0 0 0 0 0 0 0 0 0 0 0 0 0 0 0 0 0 0 0 0 0 0 0 0 0 0 0 0 0 0
0 0 0 0 0 0 0 0 0 0 0 0 0 0 0 0 0 0 0 0 0 0 0 0 0 0 0 0 0 0 0 0 0 0 0 0 0 0
0 0 0 0 0 0 0 0 0 0 0 0 0 0 0 0 0 0 0 0 0 0 0 0 0 0 0 0 0 0 0 0 0 0 0 0 0 0
0 0 0 0 0 0 0 0 0 0 0 0 0 0 0 0 0 0 0 0 0 0 0 0 0 0 0 0 0 0 0 0 0 0 0 0 0 0
0 0 0 0 0 0 0 0 0 0 0 0 0 0 0 0 0 0 0 0 0 0 0 0 0 0 0 0 0 0 0 0 0 0 0 0 0 0
0 0 0 0 0 0 0 0 0 0 0 0 0 0 0 0 0 0 0 0 0 0 0 0 0 0 0 0 0 0 0 0 0 0 0 0 0 0
0 0 0 0 0 0 0 0 0 0 0 0 0 0 0 0 0 0 0 0 0 0 0 0 0 0 0 0 0 0 0 0 0 0 0 0 0 0
0 0 0 0 0 0 0 0 0 0 0 0 0 0 0 0 0 0 0 0 0 0 0 0 0 0 0 0 0 0 0 0 0 0 0 0 0 0
0 0 0 0 0 0 0 0 0 0 0 0 0 0 0 0 0 0 0 0 0 0 0 0 0 0 0 0 0 0 0 0 0 0 0 0 0 0
0 0 0 0 0 0 0 0 0 0 0 0 0 0 0 0 0 0 0 0 0 0 0 0 0 0 0 0 0 0 0 0 0 0 0 0 0 0
0 0 0 0 0 0 0 0 0 0 0 0 0 0 0 0 0 0 0 0 0 0 0 0 0 0 0 0 0 0 0 0 0 0 0 0 0 0
0 0 0 0 0 0 0 0 0 0 0 0 0 0 0 0 0 0 0 0 0 0 0 0 0 0 0 0 0 0 0 0 0 0 0 0 0 0
0 0 0 0 0 0 0 0 0 0 0 0 0 0 0 0 0 0 0 0 0 0 0 0 0 0 0 0 0 0 0 0 0 0 0 0 0 0
0 0 0 0 0 0 0 0 0 0 0 0 0 0 0 0 0 0 0 0 0 0 0 0 0 0 0 0 0 0 0 0 0 0 0 0 0 0
Wind_Speed
8 8 6 5 5 5 5 4 3 2 2 2 1 2 3 3 5 3 2 1 5 7 8 9 10 11 11 10 10 10 9 8 7 5 3 2 2 4
6 7 7 5 5 5 5 5 5 4 3 2 1 1 2 2 5 4 5 7 7 9 10 12 13 14 14 14 13 13 13 12 11 10 9 9 8 6
6 7 9 7 6 6 5 5 6 5 6 3 1 1 1 1 3 4 5 5 6 11 12 14 15 15 15 15 15 15 14 13 13 13 12 13 13 13
6 6 8 7 8 7 6 7 6 7 6 5 2 2 2 3 4 5 5 6 6 12 14 15 16 17 16 16 16 15 14 14 14 14 14 15 16 17
5 6 7 7 8 7 7 7 6 6 6 5 3 2 2 3 5 5 7 6 7 10 14 15 16 17 17 16 16 15 15 14 14 14 14 15 16 18
5 5 6 6 7 8 7 8 7 7 6 5 5 3 3 4 5 5 5 5 5 6 9 11 15 17 17 16 17 17 15 15 15 15 15 16 16 17
5 6 6 7 9 8 6 7 8 7 6 6 6 5 5 6 6 5 7 7 5 5 7 7 8 9 10 14 16 18 17 16 16 16 16 16 16 16
6 6 6 7 9 11 12 11 11 9 9 8 7 7 7 7 6 8 9 7 5 4 6 7 6 8 7 7 12 15 16 16 16 16 16 15 15 15
7 6 6 5 7 7 9 11 12 13 12 10 9 9 9 10 11 11 9 6 6 7 7 7 6 8 7 8 12 13 14 15 15 15 15 15 14 14
8 8 7 7 6 7 6 7 8 9 12 10 9 9 9 10 11 11 11 9 9 5 3 7 5 6 6 6 10 11 12 13 13 14 14 14 14 14
8 8 7 8 8 9 8 8 7 7 8 12 11 10 12 15 15 13 13 13 10 4 2 5 6 6 5 5 6 9 10 11 11 12 12 13 12 11
6 6 8 9 9 9 9 9 9 8 7 7 8 10 13 17 19 16 15 15 13 7 3 5 7 6 5 3 4 5 6 7 8 9 10 10 9 6
5 5 5 7 9 10 10 9 9 8 8 8 7 9 10 11 11 10 10 14 14 8 9 7 7 4 6 6 4 4 4 4 4 4 6 7 6 4
6 5 4 6 7 9 9 9 11 10 7 7 8 8 9 10 9 9 8 7 6 10 12 9 7 6 8 7 6 5 4 4 4 4 4 6 5 3
6 6 6 5 5 6 9 11 12 8 8 8 8 8 8 10 10 10 10 9 10 10 9 7 9 7 8 8 8 6 5 4 4 4 4 5 4 4
5 5 4 4 4 5 6 9 8 8 8 8 8 8 8 10 10 11 11 10 9 7 5 5 8 9 7 7 8 7 6 6 5 4 4 4 4 4
5 3 3 2 3 3 4 6 6 7 8 7 9 10 10 10 9 9 9 9 8 9 7 4 5 5 5 6 8 7 6 4 5 5 4 4 4 5
6 4 4 4 4 4 5 6 6 7 8 9 10 10 11 11 9 8 8 9 9 9 8 7 7 6 4 4 3 8 6 5 4 5 4 4 4 4
4 4 4 4 4 4 4 6 6 7 8 9 10 10 10 10 10 10 9 9 9 9 9 9 9 8 8 7 3 3 7 5 5 5 4 4 4 3
3 4 4 4 4 5 5 6 7 8 8 9 9 9 9 10 10 10 10 10 9 8 7 8 9 9 9 8 6 5 6 6 6 6 5 3 2 1
4 3 3 3 4 5 5 6 8 8 9 9 9 9 9 9 9 9 8 11 9 8 9 8 5 6 5 6 6 4 5 4 5 5 6 4 4 3
3 3 3 4 4 5 6 7 7 8 9 8 8 8 8 8 9 10 9 9 8 7 7 6 7 6 4 6 6 6 6 5 4 4 6 6 5 6
2 3 3 4 4 5 5 7 9 8 8 8 8 8 8 8 8 8 8 8 8 8 8 7 5 4 3 4 5 5 7 7 5 5 6 10 12 10
Wind_Direction
213 210 209 210 202 203 200 195 202 243 277 281 310 4 12 5 1 4 12 146 168 169 164 158 154 147 140 137 135 130 126 122 121 119 116 135 205 234
217 214 216 214 208 202 201 202 202 210 242 246 253 340 9 18 31 38 60 77 95 118 124 124 123 121 120 119 118 117 114 112 111 105 96 87 81 81
232 224 226 217 210 204 197 196 202 205 235 251 239 243 135 100 68 64 65 70 83 96 104 108 111 111 111 111 110 109 107 106 103 98 92 87 82 79
247 240 239 227 220 210 200 201 200 201 216 240 240 218 177 147 114 92 78 75 80 89 96 101 103 103 104 103 102 101 100 99 97 95 92 89 86 83
251 244 245 237 231 217 209 205 199 195 204 221 229 206 165 146 125 102 94 85 82 87 90 95 99 101 102 102 102 100 98 97 95 92 89 87 86 85
239 244 245 240 239 229 218 212 197 190 197 213 222 212 182 156 142 133 118 95 89 85 86 93 99 100 104 108 110 108 103 100 97 93 89 85 84 83
234 235 241 245 244 235 224 214 195 191 194 205 213 205 188 172 160 143 132 116 88 95 101 95 99 98 101 109 112 114 109 105 101 97 94 91 88 86
241 242 244 251 252 240 229 217 199 193 197 200 208 206 195 178 154 149 144 140 124 128 109 95 96 96 96 103 111 113 110 107 104 100 97 94 91 87
239 243 250 245 249 247 232 219 210 205 199 198 207 207 190 176 160 158 159 144 130 147 126 101 95 91 91 99 107 108 108 107 105 103 100 97 93 89
238 237 241 250 249 237 225 218 215 214 213 213 220 210 189 172 165 153 140 114 105 116 117 112 111 99 96 97 102 107 109 109 108 107 105 101 96 90
241 237 238 248 248 231 218 216 214 219 220 218 214 200 173 160 150 140 140 136 133 124 93 108 124 111 98 93 99 108 114 117 116 113 110 106 101 94
243 240 237 244 251 229 215 210 211 209 195 192 188 175 165 159 158 158 153 149 143 139 161 125 144 133 114 104 111 118 117 120 123 124 122 117 112 104
234 236 237 242 248 236 220 215 209 190 186 181 168 161 157 158 161 158 158 156 155 146 156 140 149 133 126 136 137 140 137 136 136 141 146 139 127 112
227 229 236 248 252 242 223 210 187 176 175 169 161 157 154 154 153 148 137 127 128 140 149 146 145 146 135 139 144 149 150 150 151 148 153 159 158 134
222 217 226 253 260 245 223 194 178 177 171 166 159 151 144 141 138 131 122 111 107 127 138 141 140 142 143 145 149 154 159 167 172 163 165 173 174 169
208 207 220 245 245 232 200 188 186 179 169 160 147 135 132 137 142 143 141 135 126 125 102 125 146 147 144 141 151 157 162 163 167 173 167 176 187 192
173 184 200 216 227 207 191 183 178 167 155 146 144 142 142 141 143 146 145 147 145 151 146 110 90 86 102 142 155 161 158 155 157 156 164 179 195 200
166 188 202 209 213 199 185 178 172 163 153 147 146 146 147 148 146 149 154 158 155 156 154 146 140 127 110 71 135 164 164 156 150 155 165 183 195 196
179 198 204 207 206 195 184 172 160 152 146 143 143 145 146 149 153 157 162 164 163 161 160 160 163 162 170 173 156 174 170 156 153 161 176 190 204 196
202 207 206 200 197 182 169 155 144 142 140 137 137 139 144 148 154 160 165 166 159 153 156 167 177 178 182 176 159 162 174 163 167 175 176 187 213 257
202 208 197 182 168 152 142 141 141 140 138 136 136 138 142 146 150 156 157 154 152 155 164 171 165 135 110 118 128 145 168 181 167 171 170 178 198 211
190 184 169 156 144 136 134 130 130 133 134 134 137 139 142 145 147 148 150 155 159 153 146 132 136 142 142 159 169 165 165 168 185 191 194 191 188 203
155 147 140 141 134 128 129 131 131 134 137 138 139 142 144 143 144 146 149 150 147 139 132 134 144 149 146 158 170 173 178 179 183 199 223 225 233 249